| time (UTC) | temp F | wind direction | speed knots | gust knots | rain 1hr in | rain 24hr in | rain mn in | humidity % | barometer mb |
| 20260502130106 | 26 | 0 | 0.0 | 1.7 | 0.00 | 0.00 | 0.00 | 58 | 1019.1 |
| 20260502123057 | 25 | 360 | 0.9 | 2.6 | 0.00 | 0.00 | 0.00 | 58 | 1018.8 |
| 20260502121554 | 25 | 0 | 0.0 | 1.7 | 0.00 | 0.00 | 0.00 | 57 | 1019.0 |
| 20260502120104 | 25 | 0 | 0.0 | 1.7 | 0.00 | 0.00 | 0.00 | 55 | 1019.1 |
| 20260502114602 | 27 | 360 | 0.9 | 2.6 | 0.00 | 0.00 | 0.00 | 52 | 1018.8 |
| 20260502113058 | 29 | 0 | 0.0 | 0.9 | 0.00 | 0.00 | 0.00 | 52 | 1018.7 |
| 20260502111609 | 29 | 360 | 0.9 | 2.6 | 0.00 | 0.00 | 0.00 | 52 | 1018.7 |
| 20260502104600 | 28 | 360 | 0.9 | 1.7 | 0.00 | 0.00 | 0.00 | 53 | 1018.9 |
| 20260502103106 | 27 | 0 | 0.0 | 0.9 | 0.00 | 0.00 | 0.00 | 54 | 1019.0 |
| 20260502101613 | 27 | 360 | 0.0 | 1.7 | 0.00 | 0.00 | 0.00 | 53 | 1018.8 |
| 20260502100104 | 28 | 360 | 0.9 | 2.6 | 0.00 | 0.00 | 0.00 | 52 | 1018.8 |
| 20260502090114 | 32 | 360 | 0.0 | 2.6 | 0.00 | 0.00 | 0.00 | 46 | 1018.8 |
| 20260502070110 | 37 | 360 | 0.0 | 1.7 | 0.00 | 0.00 | 0.00 | 41 | 1018.6 |
| 20260502064618 | 38 | 0 | 0.0 | 0.9 | 0.00 | 0.00 | 0.00 | 40 | 1018.6 |
| 20260502063057 | 39 | 0 | 0.9 | 3.5 | 0.00 | 0.00 | 0.00 | 39 | 1018.6 |
| 20260502061601 | 39 | 360 | 1.7 | 3.5 | 0.00 | 0.00 | 0.00 | 40 | 1018.4 |
| 20260502060054 | 38 | 360 | 1.7 | 3.5 | 0.00 | 0.00 | 0.00 | 39 | 1018.2 |
| 20260502054600 | 38 | 360 | 1.7 | 4.3 | 0.00 | 0.00 | 0.00 | 37 | 1018.1 |
| 20260502053056 | 42 | 0 | 0.0 | 0.9 | 0.00 | 0.00 | 0.00 | 35 | 1018.1 |
| 20260502051556 | 42 | 0 | 0.0 | 1.7 | 0.00 | 0.00 | 0.00 | 35 | 1017.9 |
| 20260502050057 | 43 | 0 | 0.0 | 1.7 | 0.00 | 0.00 | 0.00 | 34 | 1017.9 |
| 20260502044556 | 44 | 360 | 0.0 | 1.7 | 0.00 | 0.00 | 0.00 | 33 | 1017.8 |
| 20260502043054 | 44 | 0 | 0.0 | 2.6 | 0.00 | 0.00 | 0.00 | 33 | 1017.7 |
| 20260502041559 | 44 | 360 | 0.9 | 2.6 | 0.00 | 0.00 | 0.00 | 31 | 1017.6 |
| 20260502040053 | 46 | 0 | 0.0 | 2.6 | 0.00 | 0.00 | 0.00 | 29 | 1017.4 |
| 20260502034601 | 48 | 0 | 0.9 | 2.6 | 0.00 | 0.00 | 0.00 | 28 | 1017.2 |
| 20260502033117 | 50 | 360 | 0.0 | 1.7 | 0.00 | 0.00 | 0.00 | 26 | 1017.0 |
| 20260502031602 | 52 | 360 | 0.9 | 2.6 | 0.00 | 0.00 | 0.00 | 24 | 1016.5 |
| 20260502030112 | 53 | 360 | 0.9 | 3.5 | 0.00 | 0.00 | 0.00 | 22 | 1016.4 |
| 20260502024606 | 56 | 360 | 0.9 | 4.3 | 0.00 | 0.00 | 0.00 | 21 | 1016.2 |
| 20260502023121 | 58 | 360 | 0.9 | 5.2 | 0.00 | 0.00 | 0.00 | 20 | 1015.9 |
| 20260502021553 | 59 | 360 | 2.6 | 7.8 | 0.00 | 0.00 | 0.00 | 20 | 1016.0 |
| 20260502020059 | 61 | 360 | 2.6 | 10.4 | 0.00 | 0.00 | 0.00 | 18 | 1015.9 |
| 20260502014557 | 62 | 360 | 3.5 | 10.4 | 0.00 | 0.00 | 0.00 | 17 | 1015.7 |
| 20260502013105 | 63 | 360 | 4.3 | 11.3 | 0.00 | 0.00 | 0.00 | 16 | 1015.6 |
| 20260502011559 | 64 | 360 | 6.1 | 13.0 | 0.00 | 0.00 | 0.00 | 16 | 1015.7 |
| 20260502010058 | 65 | 360 | 6.1 | 12.2 | 0.00 | 0.00 | 0.00 | 16 | 1015.5 |
| 20260502004559 | 66 | 360 | 6.1 | 13.9 | 0.00 | 0.00 | 0.00 | 14 | 1015.5 |
| 20260502003059 | 66 | 360 | 6.1 | 12.2 | 0.00 | 0.00 | 0.00 | 14 | 1015.5 |
| 20260502001629 | 67 | 360 | 2.6 | 11.3 | 0.00 | 0.00 | 0.00 | 13 | 1015.5 |
| 20260502000121 | 67 | 360 | 4.3 | 13.9 | 0.00 | 0.00 | 0.00 | 13 | 1015.5 |
| 20260501234622 | 68 | 360 | 4.3 | 12.2 | 0.00 | 0.00 | 0.00 | 12 | 1015.5 |
| 20260501233053 | 68 | 360 | 6.1 | 14.8 | 0.00 | 0.00 | 0.00 | 14 | 1015.4 |
| 20260501231604 | 68 | 360 | 6.1 | 14.8 | 0.00 | 0.00 | 0.00 | 14 | 1015.2 |
| 20260501230056 | 68 | 360 | 6.1 | 12.2 | 0.00 | 0.00 | 0.00 | 13 | 1015.3 |
| 20260501224607 | 68 | 360 | 7.8 | 17.4 | 0.00 | 0.00 | 0.00 | 14 | 1015.3 |
| 20260501223054 | 68 | 360 | 3.5 | 11.3 | 0.00 | 0.00 | 0.00 | 15 | 1015.5 |
| 20260501221556 | 68 | 360 | 6.1 | 16.5 | 0.00 | 0.00 | 0.00 | 16 | 1015.6 |
| 20260501220059 | 68 | 360 | 4.3 | 13.9 | 0.00 | 0.00 | 0.00 | 16 | 1015.8 |
| 20260501214557 | 67 | 360 | 5.2 | 12.2 | 0.00 | 0.00 | 0.00 | 17 | 1016.0 |
| 20260501213056 | 68 | 360 | 5.2 | 12.2 | 0.00 | 0.00 | 0.00 | 17 | 1016.1 |
| 20260501211555 | 68 | 360 | 5.2 | 12.2 | 0.00 | 0.00 | 0.00 | 17 | 1016.3 |
| 20260501210055 | 68 | 360 | 2.6 | 8.7 | 0.00 | 0.00 | 0.00 | 18 | 1016.3 |
| 20260501204557 | 68 | 360 | 1.7 | 8.7 | 0.00 | 0.00 | 0.00 | 18 | 1016.4 |
| 20260501203100 | 67 | 360 | 6.1 | 13.0 | 0.00 | 0.00 | 0.00 | 18 | 1016.5 |
| 20260501201559 | 66 | 360 | 1.7 | 9.6 | 0.00 | 0.00 | 0.00 | 17 | 1016.4 |
| 20260501200057 | 66 | 360 | 4.3 | 17.4 | 0.00 | 0.00 | 0.00 | 18 | 1016.5 |
| 20260501194601 | 65 | 360 | 5.2 | 10.4 | 0.00 | 0.00 | 0.00 | 18 | 1016.6 |
| 20260501193055 | 67 | 360 | 5.2 | 12.2 | 0.00 | 0.00 | 0.00 | 18 | 1016.4 |
| 20260501191556 | 67 | 360 | 3.5 | 12.2 | 0.00 | 0.00 | 0.00 | 19 | 1016.8 |
| 20260501190052 | 66 | 360 | 6.1 | 10.4 | 0.00 | 0.00 | 0.00 | 20 | 1016.8 |
| 20260501184554 | 64 | 360 | 5.2 | 11.3 | 0.00 | 0.00 | 0.00 | 21 | 1017.0 |
| 20260501183054 | 65 | 360 | 4.3 | 11.3 | 0.00 | 0.00 | 0.00 | 22 | 1017.2 |
| 20260501181553 | 64 | 360 | 8.7 | 16.5 | 0.00 | 0.00 | 0.00 | 21 | 1017.2 |
| 20260501180054 | 64 | 360 | 5.2 | 16.5 | 0.00 | 0.00 | 0.00 | 23 | 1017.2 |
| 20260501174554 | 63 | 360 | 3.5 | 14.8 | 0.00 | 0.00 | 0.00 | 24 | 1017.4 |
| 20260501173123 | 62 | 360 | 0.9 | 9.6 | 0.00 | 0.00 | 0.00 | 25 | 1017.4 |
| 20260501171553 | 62 | 360 | 4.3 | 10.4 | 0.00 | 0.00 | 0.00 | 26 | 1017.6 |
| 20260501170101 | 60 | 360 | 5.2 | 9.6 | 0.00 | 0.00 | 0.00 | 27 | 1017.6 |
| 20260501164618 | 59 | 360 | 3.5 | 10.4 | 0.00 | 0.00 | 0.00 | 29 | 1017.6 |
| 20260501163055 | 58 | 360 | 3.5 | 9.6 | 0.00 | 0.00 | 0.00 | 28 | 1017.5 |
| 20260501161559 | 58 | 360 | 2.6 | 9.6 | 0.00 | 0.00 | 0.00 | 27 | 1017.6 |
| 20260501160057 | 57 | 360 | 2.6 | 8.7 | 0.00 | 0.00 | 0.00 | 28 | 1017.6 |
| 20260501154602 | 56 | 360 | 1.7 | 4.3 | 0.00 | 0.00 | 0.00 | 30 | 1017.6 |
| 20260501153101 | 54 | 360 | 2.6 | 5.2 | 0.00 | 0.00 | 0.00 | 32 | 1017.6 |
| 20260501151604 | 53 | 360 | 0.9 | 4.3 | 0.00 | 0.00 | 0.00 | 32 | 1017.5 |
| 20260501150052 | 52 | 360 | 0.0 | 3.5 | 0.00 | 0.00 | 0.00 | 34 | 1017.5 |
| 20260501144616 | 49 | 0 | 0.0 | 2.6 | 0.00 | 0.00 | 0.00 | 37 | 1017.4 |